EW2869 Weather Reports


Display with metric or nautical units.
time (UTC)temp
F
wind
direction
speed
MPH
gust
MPH
rain 1hr
in
rain 24hr
in
rain mn
in
humidity
%
barometer
mb
20210804153906 82 110 5.0 12.0 0.00 0.00 0.00 10 1010.3
20210804153606 82 121 4.0 12.0 0.00 0.00 0.00 10 1010.4
20210804153305 82 123 7.0 12.0 0.00 0.00 0.00 10 1010.2
20210804153006 82 112 6.0 11.0 0.00 0.00 0.00 10 1010.2
20210804152706 82 120 6.0 11.0 0.00 0.00 0.00 10 1010.3
20210804152405 82 111 5.0 11.0 0.00 0.00 0.00 10 1010.3
20210804152105 82 103 4.0 11.0 0.00 0.00 0.00 10 1010.4
20210804151806 83 98 4.0 12.0 0.00 0.00 0.00 10 1010.5
20210804151506 83 104 4.0 12.0 0.00 0.00 0.00 10 1010.3
20210804151206 83 103 4.0 15.0 0.00 0.00 0.00 10 1010.8
20210804150905 83 98 6.0 15.0 0.00 0.00 0.00 10 1010.6
20210804150606 83 90 5.0 15.0 0.00 0.00 0.00 10 1010.6
20210804150306 83 93 7.0 15.0 0.00 0.00 0.00 10 1010.8
20210804150005 83 113 4.0 12.0 0.00 0.00 0.00 10 1010.9
20210804145706 83 114 4.0 14.0 0.00 0.00 0.00 10 1010.7
20210804145406 83 121 7.0 14.0 0.00 0.00 0.00 10 1010.9
20210804145105 84 113 8.0 14.0 0.00 0.00 0.00 10 1010.9
20210804144805 84 124 5.0 13.0 0.00 0.00 0.00 10 1010.9
20210804144506 85 117 4.0 13.0 0.00 0.00 0.00 10 1010.9
20210804144205 85 111 8.0 13.0 0.00 0.00 0.00 10 1010.9
20210804143905 85 106 4.0 13.0 0.00 0.00 0.00 10 1010.9
20210804143606 85 131 4.0 13.0 0.00 0.00 0.00 10 1011.0
20210804143305 85 116 4.0 14.0 0.00 0.00 0.00 10 1011.1
20210804143006 86 150 4.0 14.0 0.00 0.00 0.00 10 1011.2
20210804142706 86 121 2.0 14.0 0.00 0.00 0.00 10 1011.2
20210804142405 87 114 2.0 13.0 0.00 0.00 0.00 10 1011.1
20210804142106 87 122 4.0 14.0 0.00 0.00 0.00 10 1011.2
20210804141806 87 126 5.0 14.0 0.00 0.00 0.00 10 1011.2
20210804141506 87 138 4.0 14.0 0.00 0.00 0.00 10 1011.2
20210804141206 87 128 7.0 15.0 0.00 0.00 0.00 10 1011.2
20210804140905 87 120 7.0 15.0 0.00 0.00 0.00 10 1011.2
20210804140605 87 112 7.0 15.0 0.00 0.00 0.00 10 1011.3
20210804140306 88 109 8.0 15.0 0.00 0.00 0.00 10 1011.3
20210804140009 88 113 4.0 14.0 0.00 0.00 0.00 10 1011.3
20210804135705 88 90 6.0 14.0 0.00 0.00 0.00 10 1011.2
20210804135406 88 88 8.0 14.0 0.00 0.00 0.00 10 1011.2
20210804135105 88 108 4.0 14.0 0.00 0.00 0.00 10 1011.4
20210804134806 87 123 3.0 14.0 0.00 0.00 0.00 10 1011.2
20210804134506 87 125 6.0 14.0 0.00 0.00 0.00 10 1011.5
20210804134205 87 116 4.0 14.0 0.00 0.00 0.00 10 1011.5
20210804133906 88 90 8.0 14.0 0.00 0.00 0.00 10 1011.6
20210804133606 87 83 5.0 16.0 0.00 0.00 0.00 10 1011.4
20210804133305 87 94 4.0 16.0 0.00 0.00 0.00 10 1011.5
20210804133006 88 104 6.0 16.0 0.00 0.00 0.00 10 1011.5
20210804132706 88 133 8.0 16.0 0.00 0.00 0.00 10 1011.6
20210804132406 88 130 5.0 13.0 0.00 0.00 0.00 10 1011.5
20210804132106 87 120 5.0 15.0 0.00 0.00 0.00 10 1011.6
20210804131806 87 116 7.0 15.0 0.00 0.00 0.00 10 1011.8
20210804131506 87 116 7.0 15.0 0.00 0.00 0.00 10 1011.7
20210804131205 87 109 5.0 15.0 0.00 0.00 0.00 10 1011.9
20210804130906 87 109 7.0 15.0 0.00 0.00 0.00 10 1011.8
20210804130606 87 53 7.0 15.0 0.00 0.00 0.00 10 1011.8
20210804130306 87 323 8.0 15.0 0.00 0.00 0.00 10 1011.8
20210804130006 87 22 5.0 13.0 0.00 0.00 0.00 10 1012.0
20210804125706 87 140 5.0 15.0 0.00 0.00 0.00 10 1012.0
20210804125406 86 132 3.0 15.0 0.00 0.00 0.00 10 1012.2
20210804125106 86 137 8.0 15.0 0.00 0.00 0.00 10 1012.2
20210804124806 87 133 9.0 15.0 0.00 0.00 0.00 10 1012.1
20210804124506 87 115 6.0 15.0 0.00 0.00 0.00 10 1012.2
20210804124206 87 131 8.0 17.0 0.00 0.00 0.00 10 1012.2
20210804123906 86 116 5.0 17.0 0.00 0.00 0.00 10 1012.3
20210804123606 86 110 8.0 17.0 0.00 0.00 0.00 10 1012.3
20210804123307 86 103 7.0 17.0 0.00 0.00 0.00 10 1012.2
20210804123006 86 94 6.0 16.0 0.00 0.00 0.00 10 1012.4
20210804122706 86 90 9.0 17.0 0.00 0.00 0.00 10 1012.3
20210804122406 87 105 7.0 17.0 0.00 0.00 0.00 10 1012.4
20210804122106 87 124 8.0 17.0 0.00 0.00 0.00 10 1012.5
20210804121806 86 139 8.0 17.0 0.00 0.00 0.00 10 1012.5
20210804121506 86 157 8.0 15.0 0.00 0.00 0.00 10 1012.5
20210804121206 87 146 8.0 15.0 0.00 0.00 0.00 10 1012.6
20210804120905 87 127 5.0 14.0 0.00 0.00 0.00 10 1012.5
20210804120606 88 104 7.0 14.0 0.00 0.00 0.00 10 1012.5
20210804120306 88 79 6.0 17.0 0.00 0.00 0.00 10 1012.5
20210804120006 89 90 2.0 17.0 0.00 0.00 0.00 10 1012.4
20210804115706 89 97 2.0 17.0 0.00 0.00 0.00 10 1012.4
20210804115406 89 133 8.0 17.0 0.00 0.00 0.00 10 1012.4
20210804115106 89 128 4.0 15.0 0.00 0.00 0.00 10 1012.6
20210804114806 87 109 3.0 15.0 0.00 0.00 0.00 10 1012.5
20210804114506 87 103 8.0 15.0 0.00 0.00 0.00 10 1012.7
20210804114205 87 119 7.0 15.0 0.00 0.00 0.00 10 1012.9
20210804113906 88 115 8.0 16.0 0.00 0.00 0.00 10 1012.6
20210804113606 88 120 7.0 16.0 0.00 0.00 0.00 10 1012.9
20210804113307 88 114 5.0 16.0 0.00 0.00 0.00 10 1012.9
20210804113006 88 115 8.0 16.0 0.00 0.00 0.00 10 1013.0
20210804112706 87 121 4.0 15.0 0.00 0.00 0.00 10 1013.0
20210804112406 87 130 7.0 15.0 0.00 0.00 0.00 10 1012.9
20210804112106 87 149 7.0 15.0 0.00 0.00 0.00 10 1012.9
20210804111806 87 148 5.0 15.0 0.00 0.00 0.00 10 1012.9
20210804111506 87 140 7.0 15.0 0.00 0.00 0.00 10 1012.9
20210804111206 88 131 7.0 15.0 0.00 0.00 0.00 10 1013.0
20210804110906 88 129 7.0 16.0 0.00 0.00 0.00 10 1012.8
20210804110607 88 144 8.0 16.0 0.00 0.00 0.00 10 1012.9
20210804110306 88 159 8.0 16.0 0.00 0.00 0.00 10 1012.9
20210804110006 88 141 8.0 17.0 0.00 0.00 0.00 10 1012.8
20210804105706 89 136 7.0 17.0 0.00 0.00 0.00 10 1013.0
20210804105406 89 125 10.0 17.0 0.00 0.00 0.00 10 1013.0
20210804105107 89 134 7.0 14.0 0.00 0.00 0.00 10 1013.0
20210804104806 89 132 6.0 14.0 0.00 0.00 0.00 10 1013.2
20210804104506 89 125 4.0 13.0 0.00 0.00 0.00 10 1013.0
20210804104206 88 110 5.0 13.0 0.00 0.00 0.00 10 1013.2
20210804103906 88 77 4.0 13.0 0.00 0.00 0.00 10 1013.2
20210804103606 88 86 8.0 13.0 0.00 0.00 0.00 10 1013.2
20210804103307 87 98 2.0 12.0 0.00 0.00 0.00 10 1013.1
20210804103007 87 107 5.0 12.0 0.00 0.00 0.00 10 1013.1
20210804102706 86 125 7.0 12.0 0.00 0.00 0.00 10 1013.3
20210804102407 87 109 6.0 12.0 0.00 0.00 0.00 10 1013.3
20210804102106 87 92 4.0 13.0 0.00 0.00 0.00 10 1013.3
20210804101806 88 99 5.0 13.0 0.00 0.00 0.00 10 1013.3
20210804101506 88 107 7.0 13.0 0.00 0.00 0.00 10 1013.2
20210804101207 88 108 7.0 13.0 0.00 0.00 0.00 10 1013.4
20210804100906 88 115 7.0 13.0 0.00 0.00 0.00 10 1013.5
20210804100607 88 122 7.0 13.0 0.00 0.00 0.00 10 1013.6
20210804100306 88 122 7.0 15.0 0.00 0.00 0.00 10 1013.5
20210804100006 89 126 8.0 15.0 0.00 0.00 0.00 10 1013.4
20210804095707 89 117 8.0 15.0 0.00 0.00 0.00 10 1013.3
20210804095407 89 113 4.0 11.0 0.00 0.00 0.00 10 1013.3
20210804095106 89 113 4.0 11.0 0.00 0.00 0.00 10 1013.4
20210804094806 89 132 3.0 17.0 0.00 0.00 0.00 10 1013.5
20210804094506 89 138 4.0 17.0 0.00 0.00 0.00 10 1013.5
20210804094206 89 140 4.0 17.0 0.00 0.00 0.00 10 1013.4
20210804093907 89 114 4.0 11.0 0.00 0.00 0.00 10 1013.3
20210804093607 88 107 2.0 11.0 0.00 0.00 0.00 10 1013.3
20210804093307 88 109 4.0 11.0 0.00 0.00 0.00 10 1013.5
20210804093006 87 107 4.0 11.0 0.00 0.00 0.00 10 1013.3
20210804092706 87 114 5.0 11.0 0.00 0.00 0.00 10 1013.2
20210804092407 87 128 4.0 11.0 0.00 0.00 0.00 10 1013.3
20210804092107 87 138 5.0 11.0 0.00 0.00 0.00 10 1013.4
20210804091807 87 123 6.0 11.0 0.00 0.00 0.00 10 1013.4
20210804091507 87 129 5.0 12.0 0.00 0.00 0.00 10 1013.4
20210804091206 87 125 4.0 12.0 0.00 0.00 0.00 10 1013.4
20210804090906 87 127 4.0 14.0 0.00 0.00 0.00 10 1013.5
20210804090607 87 136 4.0 14.0 0.00 0.00 0.00 10 1013.6
20210804090307 87 134 7.0 14.0 0.00 0.00 0.00 10 1013.5
20210804090007 87 128 5.0 10.0 0.00 0.00 0.00 10 1013.5
20210804085706 87 129 5.0 10.0 0.00 0.00 0.00 10 1013.4
20210804085406 86 127 4.0 12.0 0.00 0.00 0.00 10 1013.5
20210804085106 86 140 6.0 12.0 0.00 0.00 0.00 10 1013.7
20210804084806 86 136 6.0 12.0 0.00 0.00 0.00 10 1013.5
20210804084507 86 129 5.0 13.0 0.00 0.00 0.00 10 1013.7
20210804084207 87 128 7.0 14.0 0.00 0.00 0.00 10 1013.7
20210804083907 87 120 5.0 14.0 0.00 0.00 0.00 10 1013.6
20210804083607 87 116 6.0 14.0 0.00 0.00 0.00 10 1013.7
20210804083306 86 117 5.0 14.0 0.00 0.00 0.00 10 1013.8
20210804083007 86 120 8.0 13.0 0.00 0.00 0.00 10 1013.7
20210804082707 86 120 4.0 13.0 0.00 0.00 0.00 10 1013.7
20210804082407 86 130 5.0 14.0 0.00 0.00 0.00 10 1013.7
20210804082106 87 106 4.0 14.0 0.00 0.00 0.00 10 1013.7
20210804081807 87 121 3.0 14.0 0.00 0.00 0.00 10 1013.8
20210804081507 87 105 6.0 14.0 0.00 0.00 0.00 10 1013.8
20210804081206 87 104 4.0 9.0 0.00 0.00 0.00 10 1013.7
20210804080907 87 112 4.0 9.0 0.00 0.00 0.00 10 1013.8
20210804080606 86 97 5.0 9.0 0.00 0.00 0.00 10 1013.7
20210804080307 86 121 4.0 11.0 0.00 0.00 0.00 10 1013.7
20210804080007 85 121 6.0 11.0 0.00 0.00 0.00 10 1013.6
20210804075707 85 115 5.0 11.0 0.00 0.00 0.00 10 1013.7
20210804075407 85 123 6.0 11.0 0.00 0.00 0.00 10 1013.7
20210804075107 85 112 4.0 8.0 0.00 0.00 0.00 10 1013.7
20210804074806 85 109 4.0 7.0 0.00 0.00 0.00 10 1013.7
20210804074507 85 104 2.0 7.0 0.00 0.00 0.00 10 1013.6
20210804074206 84 112 4.0 7.0 0.00 0.00 0.00 10 1013.7
20210804073907 84 124 3.0 8.0 0.00 0.00 0.00 10 1013.7
20210804073607 83 118 2.0 8.0 0.00 0.00 0.00 10 1013.7
20210804073308 84 130 4.0 8.0 0.00 0.00 0.00 10 1013.8
20210804073007 84 139 2.0 6.0 0.00 0.00 0.00 10 1013.6
20210804072707 84 171 3.0 6.0 0.00 0.00 0.00 10 1013.7
20210804072407 83 208 1.0 6.0 0.00 0.00 0.00 10 1013.7
20210804072107 83 207 1.0 4.0 0.00 0.00 0.00 10 1013.8
20210804071807 83 187 1.0 5.0 0.00 0.00 0.00 10 1013.7
20210804071507 82 171 0.0 5.0 0.00 0.00 0.00 10 1013.8
20210804071207 82 149 2.0 5.0 0.00 0.00 0.00 10 1013.8
20210804070906 82 1 2.0 5.0 0.00 0.00 0.00 10 1013.7
20210804070607 83 1 2.0 4.0 0.00 0.00 0.00 10 1013.8
20210804070307 83 1 1.0 3.0 0.00 0.00 0.00 10 1013.8
20210804070006 83 1 2.0 3.0 0.00 0.00 0.00 10 1013.7
20210804065707 83 1 1.0 3.0 0.00 0.00 0.00 10 1013.9
20210804065407 82 1 0.0 3.0 0.00 0.00 0.00 10 1013.8
20210804065107 82 1 0.0 2.0 0.00 0.00 0.00 10 1013.7
20210804064807 80 1 0.0 2.0 0.00 0.00 0.00 10 1013.7
20210804064507 80 1 0.0 2.0 0.00 0.00 0.00 10 1013.8
20210804064207 79 1 0.0 2.0 0.00 0.00 0.00 10 1013.6
20210804063907 79 1 0.0 2.0 0.00 0.00 0.00 10 1013.7
20210804063607 80 1 1.0 2.0 0.00 0.00 0.00 10 1013.8
20210804063307 80 1 0.0 2.0 0.00 0.00 0.00 10 1013.8
20210804063007 80 1 0.0 2.0 0.00 0.00 0.00 10 1013.8
20210804062706 79 1 1.0 2.0 0.00 0.00 0.00 10 1013.8
20210804062407 79 1 0.0 2.0 0.00 0.00 0.00 10 1013.8
20210804062107 78 1 0.0 2.0 0.00 0.00 0.00 10 1013.8
20210804061807 77 1 0.0 2.0 0.00 0.00 0.00 10 1013.8
20210804061507 77 0 0.0 0.0 0.00 0.00 0.00 10 1013.8
20210804061207 77 0 0.0 0.0 0.00 0.00 0.00 10 1013.9
20210804060907 76 1 0.0 1.0 0.00 0.00 0.00 10 1013.9
20210804060607 76 1 0.0 1.0 0.00 0.00 0.00 10 1013.8
20210804060307 75 1 0.0 2.0 0.00 0.00 0.00 10 1013.9
20210804060008 75 1 0.0 2.0 0.00 0.00 0.00 10 1013.9
20210804055707 74 1 0.0 2.0 0.00 0.00 0.00 10 1013.9
20210804055407 75 1 0.0 2.0 0.00 0.00 0.00 10 1013.9
20210804055107 75 1 1.0 2.0 0.00 0.00 0.00 10 1013.9
20210804054807 76 1 1.0 2.0 0.00 0.00 0.00 10 1013.9
20210804054507 76 5 0.0 2.0 0.00 0.00 0.00 10 1013.8
20210804054206 77 19 0.0 2.0 0.00 0.00 0.00 10 1013.8
20210804053907 77 28 0.0 2.0 0.00 0.00 0.00 10 1013.8
20210804053607 77 43 0.0 2.0 0.00 0.00 0.00 10 1013.7
20210804053307 77 45 0.0 2.0 0.00 0.00 0.00 10 1013.8
20210804053007 76 45 0.0 2.0 0.00 0.00 0.00 10 1013.7
20210804052708 76 45 0.0 2.0 0.00 0.00 0.00 10 1013.7
20210804052407 76 0 0.0 0.0 0.00 0.00 0.00 10 1013.8
20210804052107 75 0 0.0 0.0 0.00 0.00 0.00 10 1013.7
20210804051807 74 0 0.0 0.0 0.00 0.00 0.00 10 1013.7
20210804051508 74 45 0.0 1.0 0.00 0.00 0.00 10 1013.6
20210804051207 73 45 0.0 1.0 0.00 0.00 0.00 10 1013.6
20210804050907 73 45 0.0 1.0 0.00 0.00 0.00 10 1013.6
20210804050607 72 45 0.0 1.0 0.00 0.00 0.00 10 1013.6
20210804050308 72 45 0.0 1.0 0.00 0.00 0.00 10 1013.6
20210804050007 72 46 0.0 2.0 0.00 0.00 0.00 10 1013.5
20210804045707 71 45 0.0 2.0 0.00 0.00 0.00 10 1013.6
20210804045407 71 58 0.0 2.0 0.00 0.00 0.00 10 1013.5
20210804045107 71 95 0.0 2.0 0.00 0.00 0.00 10 1013.5
20210804044807 71 137 0.0 2.0 0.00 0.00 0.00 10 1013.5
20210804044507 71 193 0.0 2.0 0.00 0.00 0.00 10 1013.5
20210804044207 71 228 0.0 2.0 0.00 0.00 0.00 10 1013.4
20210804043907 71 273 0.0 2.0 0.00 0.00 0.00 10 1013.5
20210804043607 71 279 0.0 2.0 0.00 0.00 0.00 10 1013.3
20210804043307 71 262 0.0 2.0 0.00 0.00 0.00 10 1013.6
20210804043007 71 202 0.0 2.0 0.00 0.00 0.00 10 1013.6
20210804042707 71 158 0.0 1.0 0.00 0.00 0.00 10 1013.4
20210804042407 70 157 0.0 1.0 0.00 0.00 0.00 10 1013.5
20210804042107 70 157 0.0 1.0 0.00 0.00 0.00 10 1013.4
20210804041807 70 158 0.0 1.0 0.00 0.00 0.00 10 1013.6
20210804041507 70 158 0.0 1.0 0.00 0.00 0.00 10 1013.5
20210804041207 70 158 0.0 1.0 0.00 0.00 0.00 10 1013.5
20210804040907 70 181 0.0 1.0 0.00 0.00 0.00 10 1013.4
20210804040607 70 191 0.0 2.0 0.00 0.00 0.00 10 1013.4
20210804040307 70 188 0.0 2.0 0.00 0.00 0.00 10 1013.5
20210804040007 69 187 0.0 2.0 0.00 0.00 0.00 10 1013.4
20210804035707 70 188 0.0 2.0 0.00 0.00 0.00 10 1013.6
20210804035407 70 181 0.0 2.0 0.00 0.00 0.00 10 1013.4
20210804035107 70 163 0.0 3.0 0.00 0.00 0.00 10 1013.4
20210804034807 70 133 0.0 3.0 0.00 0.00 0.00 10 1013.4
20210804034507 71 134 0.0 3.0 0.00 0.00 0.00 10 1013.4
20210804034207 71 119 0.0 2.0 0.00 0.00 0.00 10 1013.4
20210804033907 71 159 0.0 2.0 0.00 0.00 0.00 10 1013.4
20210804033607 71 102 0.0 2.0 0.00 0.00 0.00 10 1013.5
20210804033307 71 322 0.0 2.0 0.00 0.00 0.00 10 1013.4
20210804033007 72 326 0.0 2.0 0.00 0.00 0.00 10 1013.5
20210804032707 71 318 1.0 2.0 0.00 0.00 0.00 10 1013.5
20210804032407 71 305 1.0 2.0 0.00 0.00 0.00 10 1013.5
20210804032108 71 304 0.0 2.0 0.00 0.00 0.00 10 1013.4
20210804031808 71 302 0.0 2.0 0.00 0.00 0.00 10 1013.5
20210804031507 71 305 0.0 2.0 0.00 0.00 0.00 10 1013.6
20210804031207 70 289 0.0 2.0 0.00 0.00 0.00 10 1013.5
20210804030908 70 267 0.0 2.0 0.00 0.00 0.00 10 1013.6
20210804030607 70 280 0.0 2.0 0.00 0.00 0.00 10 1013.6
20210804030307 70 293 1.0 2.0 0.00 0.00 0.00 10 1013.5
20210804030007 70 303 1.0 2.0 0.00 0.00 0.00 10 1013.6
20210804025707 70 295 0.0 2.0 0.00 0.00 0.00 10 1013.5
20210804025408 70 283 0.0 2.0 0.00 0.00 0.00 10 1013.5
20210804025107 70 283 0.0 2.0 0.00 0.00 0.00 10 1013.4
20210804024807 70 339 0.0 4.0 0.00 0.00 0.00 10 1013.6
20210804024507 71 50 0.0 4.0 0.00 0.00 0.00 10 1013.7
20210804024208 71 64 1.0 4.0 0.00 0.00 0.00 10 1013.6
20210804023908 71 54 1.0 4.0 0.00 0.00 0.00 10 1013.6
20210804023608 72 18 2.0 4.0 0.00 0.00 0.00 10 1013.7
20210804023308 73 354 1.0 4.0 0.00 0.00 0.00 10 1013.7
20210804023008 74 350 2.0 4.0 0.00 0.00 0.00 10 1013.6
20210804022707 73 1 1.0 3.0 0.00 0.00 0.00 10 1013.7
20210804022407 73 1 2.0 3.0 0.00 0.00 0.00 10 1013.7
20210804022107 72 1 2.0 3.0 0.00 0.00 0.00 10 1013.6
20210804021807 72 356 0.0 2.0 0.00 0.00 0.00 10 1013.8
20210804021507 72 335 1.0 2.0 0.00 0.00 0.00 10 1013.7
20210804021208 72 317 0.0 2.0 0.00 0.00 0.00 10 1013.8
20210804020908 72 314 0.0 2.0 0.00 0.00 0.00 10 1013.8
20210804020607 73 314 1.0 2.0 0.00 0.00 0.00 10 1013.8
20210804020307 73 314 0.0 1.0 0.00 0.00 0.00 10 1013.7
20210804020007 73 314 0.0 1.0 0.00 0.00 0.00 10 1013.8
20210804015708 73 314 0.0 1.0 0.00 0.00 0.00 10 1013.8
20210804015408 73 314 0.0 1.0 0.00 0.00 0.00 10 1013.9
20210804015108 74 314 0.0 1.0 0.00 0.00 0.00 10 1014.1
20210804014808 74 278 0.0 1.0 0.00 0.00 0.00 10 1014.0
20210804014508 74 264 0.0 1.0 0.00 0.00 0.00 10 1014.1
20210804014208 74 257 0.0 2.0 0.00 0.00 0.00 10 1014.0
20210804013907 74 257 0.0 2.0 0.00 0.00 0.00 10 1014.1
20210804013608 74 90 0.0 2.0 0.00 0.00 0.00 10 1013.9
20210804013308 74 90 0.0 2.0 0.00 0.00 0.00 10 1014.0
20210804013008 73 91 0.0 2.0 0.00 0.00 0.00 10 1014.1
20210804012708 73 101 0.0 2.0 0.00 0.00 0.00 10 1014.0
20210804012408 73 108 0.0 2.0 0.00 0.00 0.00 10 1014.0
20210804012108 73 116 1.0 2.0 0.00 0.00 0.00 10 1014.0
20210804011808 73 112 0.0 2.0 0.00 0.00 0.00 10 1014.1
20210804011508 73 93 0.0 2.0 0.00 0.00 0.00 10 1014.0
20210804011208 73 99 0.0 2.0 0.00 0.00 0.00 10 1014.1
20210804010907 73 110 0.0 2.0 0.00 0.00 0.00 10 1014.2
20210804010607 74 118 1.0 2.0 0.00 0.00 0.00 10 1014.2
20210804010308 74 135 0.0 2.0 0.00 0.00 0.00 10 1014.2
20210804010008 74 167 0.0 2.0 0.00 0.00 0.00 10 1014.2
20210804005708 75 171 0.0 4.0 0.00 0.00 0.00 10 1014.2
20210804005408 76 192 0.0 5.0 0.00 0.00 0.00 10 1014.1
20210804005108 76 221 1.0 5.0 0.00 0.00 0.00 10 1014.2
20210804004808 76 278 0.0 5.0 0.00 0.00 0.00 10 1014.1
20210804004508 76 279 2.0 5.0 0.00 0.00 0.00 10 1014.2
20210804004208 76 279 1.0 3.0 0.00 0.00 0.00 10 1014.2
20210804003908 76 239 1.0 4.0 0.00 0.00 0.00 10 1014.2
20210804003608 76 226 0.0 4.0 0.00 0.00 0.00 10 1014.3
20210804003308 76 218 0.0 4.0 0.00 0.00 0.00 10 1014.2
20210804003008 76 244 2.0 4.0 0.00 0.00 0.00 10 1014.3
20210804002402 77 309 0.0 3.0 0.00 0.00 0.00 10 1014.4
20210804002102 77 269 0.0 4.0 0.00 0.00 0.00 10 1014.3
20210804001502 77 201 0.0 4.0 0.00 0.00 0.00 10 1014.4
20210804001203 77 215 2.0 4.0 0.00 0.00 0.00 10 1014.5
20210804000902 78 259 0.0 5.0 0.00 0.00 0.00 10 1014.5
20210804000602 78 275 1.0 5.0 0.00 0.00 0.00 10 1014.4
20210804000302 77 266 2.0 5.0 0.00 0.00 0.00 10 1014.4
20210804000003 77 255 2.0 4.0 0.00 0.00 0.00 10 1014.4
20210803235702 77 230 1.0 3.0 0.00 0.00 0.00 10 1014.4
20210803235402 78 241 1.0 7.0 0.00 0.00 0.00 10 1014.5
20210803235102 78 194 0.0 8.0 0.00 0.00 0.00 10 1014.4
20210803234802 78 139 1.0 8.0 0.00 0.00 0.00 10 1014.4
20210803234502 78 112 1.0 8.0 0.00 0.00 0.00 10 1014.3
20210803234203 78 204 3.0 8.0 0.00 0.00 0.00 10 1014.4
20210803233902 78 251 3.0 10.0 0.00 0.00 0.00 10 1014.3
20210803233602 78 264 1.0 10.0 0.00 0.00 0.00 10 1014.3
20210803233303 78 282 2.0 10.0 0.00 0.00 0.00 10 1014.4
20210803233003 78 275 2.0 10.0 0.00 0.00 0.00 10 1014.4
20210803232702 78 258 1.0 7.0 0.00 0.00 0.00 10 1014.3
20210803232402 78 220 2.0 8.0 0.00 0.00 0.00 10 1014.3
20210803232103 78 217 2.0 9.0 0.00 0.00 0.00 10 1014.4
20210803231802 78 205 2.0 9.0 0.00 0.00 0.00 10 1014.2
20210803231502 77 173 2.0 9.0 0.00 0.00 0.00 10 1014.3
20210803231202 77 139 3.0 7.0 0.00 0.00 0.00 10 1014.4
20210803230903 76 124 2.0 7.0 0.00 0.00 0.00 10 1014.2
20210803230602 76 201 3.0 7.0 0.00 0.00 0.00 10 1014.2
20210803230303 76 249 1.0 4.0 0.00 0.00 0.00 10 1014.2
20210803230005 75 219 2.0 4.0 0.00 0.00 0.00 10 1014.2
20210803225702 75 226 2.0 5.0 0.00 0.00 0.00 10 1014.2
20210803225402 75 226 2.0 5.0 0.00 0.00 0.00 10 1014.3
20210803225103 74 210 2.0 5.0 0.00 0.00 0.00 10 1014.3
20210803224802 74 229 2.0 5.0 0.00 0.00 0.00 10 1014.2
20210803224502 74 181 0.0 4.0 0.00 0.00 0.00 10 1014.1
20210803224202 73 241 0.0 4.0 0.00 0.00 0.00 10 1014.2
20210803223903 73 221 0.0 3.0 0.00 0.00 0.00 10 1014.2
20210803223603 73 219 0.0 3.0 0.00 0.00 0.00 10 1014.2
20210803223303 73 201 1.0 3.0 0.00 0.00 0.00 10 1014.2
20210803223003 73 185 0.0 2.0 0.00 0.00 0.00 10 1014.2
20210803222703 74 173 0.0 2.0 0.00 0.00 0.00 10 1014.1
20210803222403 74 145 0.0 2.0 0.00 0.00 0.00 10 1014.2
20210803222103 74 166 0.0 2.0 0.00 0.00 0.00 10 1014.2
20210803221802 74 189 0.0 2.0 0.00 0.00 0.00 10 1014.3
20210803221503 74 224 0.0 2.0 0.00 0.00 0.00 10 1014.2
20210803221202 74 249 0.0 2.0 0.00 0.00 0.00 10 1014.2
20210803220902 74 257 0.0 2.0 0.00 0.00 0.00 10 1014.2
20210803220602 73 269 0.0 2.0 0.00 0.00 0.00 10 1014.3
20210803220302 73 270 0.0 2.0 0.00 0.00 0.00 10 1014.2
20210803220004 73 270 0.0 2.0 0.00 0.00 0.00 10 1014.3
20210803215702 74 270 0.0 2.0 0.00 0.00 0.00 10 1014.3
20210803215403 74 270 0.0 2.0 0.00 0.00 0.00 10 1014.3
20210803215103 74 270 0.0 2.0 0.00 0.00 0.00 10 1014.4
20210803214803 74 270 0.0 2.0 0.00 0.00 0.00 10 1014.3
20210803214502 74 270 0.0 2.0 0.00 0.00 0.00 10 1014.3
20210803214202 74 277 0.0 2.0 0.00 0.00 0.00 10 1014.3
20210803213902 74 305 1.0 3.0 0.00 0.00 0.00 10 1014.3
20210803213602 74 331 0.0 3.0 0.00 0.00 0.00 10 1014.2
20210803213302 74 335 0.0 3.0 0.00 0.00 0.00 10 1014.2
20210803213003 74 325 1.0 3.0 0.00 0.00 0.00 10 1014.2
20210803212703 74 275 0.0 2.0 0.00 0.00 0.00 10 1014.1
20210803212403 74 270 0.0 2.0 0.00 0.00 0.00 10 1014.3
20210803212103 74 270 0.0 2.0 0.00 0.00 0.00 10 1014.2
20210803211803 74 251 0.0 2.0 0.00 0.00 0.00 10 1014.2
20210803211502 74 239 0.0 2.0 0.00 0.00 0.00 10 1014.2
20210803211202 74 230 0.0 2.0 0.00 0.00 0.00 10 1014.2
20210803210902 74 225 0.0 2.0 0.00 0.00 0.00 10 1014.1
20210803210602 74 225 0.0 2.0 0.00 0.00 0.00 10 1014.1
20210803210303 74 225 0.0 2.0 0.00 0.00 0.00 10 1014.1
20210803210004 74 225 0.0 2.0 0.00 0.00 0.00 10 1014.2
20210803205703 74 225 0.0 2.0 0.00 0.00 0.00 10 1014.2
20210803205403 75 225 0.0 2.0 0.00 0.00 0.00 10 1014.1
20210803205103 75 215 0.0 2.0 0.00 0.00 0.00 10 1014.2
20210803204803 75 200 0.0 2.0 0.00 0.00 0.00 10 1014.0
20210803204503 75 190 0.0 2.0 0.00 0.00 0.00 10 1014.1
20210803204203 75 181 1.0 2.0 0.00 0.00 0.00 10 1013.9
20210803203903 76 181 0.0 2.0 0.00 0.00 0.00 10 1014.0
20210803203603 76 181 0.0 2.0 0.00 0.00 0.00 10 1013.9
20210803203303 76 181 0.0 2.0 0.00 0.00 0.00 10 1014.0
20210803203003 75 181 1.0 2.0 0.00 0.00 0.00 10 1014.0
20210803202703 75 181 0.0 2.0 0.00 0.00 0.00 10 1014.0
20210803202403 75 181 0.0 2.0 0.00 0.00 0.00 10 1014.0
20210803202102 76 181 0.0 2.0 0.00 0.00 0.00 10 1013.9
20210803201802 76 181 0.0 2.0 0.00 0.00 0.00 10 1014.0
20210803201503 76 178 0.0 2.0 0.00 0.00 0.00 10 1014.0
20210803201203 76 161 0.0 2.0 0.00 0.00 0.00 10 1014.0
20210803200903 76 139 0.0 3.0 0.00 0.00 0.00 10 1013.8
20210803200603 76 121 0.0 3.0 0.00 0.00 0.00 10 1013.9
20210803200303 76 127 0.0 3.0 0.00 0.00 0.00 10 1013.9
20210803200003 76 127 1.0 4.0 0.00 0.00 0.00 10 1013.8
20210803195704 76 128 1.0 4.0 0.00 0.00 0.00 10 1014.0
20210803195403 76 123 1.0 4.0 0.00 0.00 0.00 10 1013.9
20210803195103 76 119 1.0 4.0 0.00 0.00 0.00 10 1013.9
20210803194803 76 122 2.0 3.0 0.00 0.00 0.00 10 1013.8
20210803194502 76 126 1.0 4.0 0.00 0.00 0.00 10 1013.8
20210803194204 76 121 0.0 5.0 0.00 0.00 0.00 10 1013.7
20210803193903 76 117 2.0 5.0 0.00 0.00 0.00 10 1013.7
20210803193603 76 117 2.0 5.0 0.00 0.00 0.00 10 1013.7
20210803193303 76 113 2.0 5.0 0.00 0.00 0.00 10 1013.5
20210803193003 76 99 2.0 6.0 0.00 0.00 0.00 10 1013.6
20210803192703 76 87 3.0 6.0 0.00 0.00 0.00 10 1013.6
20210803192403 77 68 2.0 6.0 0.00 0.00 0.00 10 1013.5
20210803192103 77 60 2.0 6.0 0.00 0.00 0.00 10 1013.4
20210803191803 77 45 1.0 4.0 0.00 0.00 0.00 10 1013.4
20210803191503 77 45 2.0 4.0 0.00 0.00 0.00 10 1013.4
20210803191203 77 60 2.0 4.0 0.00 0.00 0.00 10 1013.4
20210803190903 77 72 1.0 5.0 0.00 0.00 0.00 10 1013.5
20210803190603 77 98 2.0 6.0 0.00 0.00 0.00 10 1013.5
20210803190303 77 110 2.0 6.0 0.00 0.00 0.00 10 1013.2
20210803190003 77 128 2.0 6.0 0.00 0.00 0.00 10 1013.2
20210803185704 77 131 3.0 6.0 0.00 0.00 0.00 10 1013.2
20210803185403 77 132 2.0 5.0 0.00 0.00 0.00 10 1013.2
20210803185103 77 154 3.0 5.0 0.00 0.00 0.00 10 1013.1
20210803184803 77 141 2.0 7.0 0.00 0.00 0.00 10 1013.1
20210803184503 78 133 3.0 7.0 0.00 0.00 0.00 10 1013.1
20210803184204 78 127 3.0 7.0 0.00 0.00 0.00 10 1013.1
20210803183903 78 121 2.0 7.0 0.00 0.00 0.00 10 1013.1
20210803183603 78 127 2.0 7.0 0.00 0.00 0.00 10 1013.1
20210803183303 78 137 3.0 8.0 0.00 0.00 0.00 10 1013.0
20210803183003 78 128 2.0 10.0 0.00 0.00 0.00 10 1013.1
20210803182704 78 131 2.0 10.0 0.00 0.00 0.00 10 1013.2
20210803182403 78 117 4.0 10.0 0.00 0.00 0.00 10 1013.2
20210803182103 78 115 4.0 8.0 0.00 0.00 0.00 10 1013.1
20210803181803 78 112 4.0 8.0 0.00 0.00 0.00 10 1013.0
20210803181503 78 111 4.0 8.0 0.00 0.00 0.00 10 1013.1
20210803181203 79 111 4.0 8.0 0.00 0.00 0.00 10 1012.9
20210803180903 79 111 4.0 8.0 0.00 0.00 0.00 10 1013.0
20210803180605 79 118 3.0 8.0 0.00 0.00 0.00 10 1013.1
20210803180303 79 137 4.0 8.0 0.00 0.00 0.00 10 1013.0
20210803180004 79 141 4.0 8.0 0.00 0.00 0.00 10 1013.0
20210803175704 79 109 4.0 9.0 0.00 0.00 0.00 10 1013.1
20210803175403 79 87 4.0 9.0 0.00 0.00 0.00 10 1013.0
20210803175103 79 92 4.0 9.0 0.00 0.00 0.00 10 1013.1
20210803174804 80 107 4.0 9.0 0.00 0.00 0.00 10 1013.0
20210803174504 80 121 3.0 9.0 0.00 0.00 0.00 10 1012.9
20210803174203 80 131 4.0 9.0 0.00 0.00 0.00 10 1013.0
20210803173904 80 117 4.0 10.0 0.00 0.00 0.00 10 1013.0
20210803173604 81 115 4.0 11.0 0.00 0.00 0.00 10 1012.9
20210803173303 81 94 5.0 11.0 0.00 0.00 0.00 10 1013.0
20210803173003 81 104 4.0 11.0 0.00 0.00 0.00 10 1012.8
20210803172703 81 117 4.0 9.0 0.00 0.00 0.00 10 1013.0
20210803172404 81 121 4.0 9.0 0.00 0.00 0.00 10 1012.8
20210803172104 82 94 2.0 9.0 0.00 0.00 0.00 10 1012.9
20210803171804 82 85 2.0 9.0 0.00 0.00 0.00 10 1012.7
20210803171504 83 100 4.0 9.0 0.00 0.00 0.00 10 1012.7
20210803171204 83 110 2.0 9.0 0.00 0.00 0.00 10 1012.8
20210803170904 83 118 3.0 11.0 0.00 0.00 0.00 10 1012.8
20210803170604 83 122 4.0 11.0 0.00 0.00 0.00 10 1013.0
20210803170303 83 113 3.0 11.0 0.00 0.00 0.00 10 1012.9
20210803170003 83 108 5.0 11.0 0.00 0.00 0.00 10 1012.9
20210803165704 83 109 4.0 10.0 0.00 0.00 0.00 10 1012.9
20210803165404 83 84 4.0 10.0 0.00 0.00 0.00 10 1012.9
20210803165103 83 144 5.0 10.0 0.00 0.00 0.00 10 1012.9
20210803164804 83 149 4.0 10.0 0.00 0.00 0.00 10 1013.0
20210803164504 84 154 4.0 11.0 0.00 0.00 0.00 10 1012.9
20210803164204 83 135 4.0 11.0 0.00 0.00 0.00 10 1012.7
20210803163903 83 127 4.0 11.0 0.00 0.00 0.00 10 1012.7
20210803163603 84 110 5.0 11.0 0.00 0.00 0.00 10 1012.7
20210803163304 84 106 5.0 10.0 0.00 0.00 0.00 10 1012.7
20210803163004 84 89 4.0 8.0 0.00 0.00 0.00 10 1012.9
20210803162703 84 114 2.0 9.0 0.00 0.00 0.00 10 1012.9
20210803162404 84 130 2.0 9.0 0.00 0.00 0.00 10 1013.0
20210803162104 85 152 3.0 11.0 0.00 0.00 0.00 10 1013.1
20210803161804 85 142 3.0 11.0 0.00 0.00 0.00 10 1013.0
20210803161504 85 131 4.0 11.0 0.00 0.00 0.00 10 1012.9
20210803161203 86 118 4.0 9.0 0.00 0.00 0.00 10 1012.8
20210803160904 86 102 4.0 9.0 0.00 0.00 0.00 10 1013.0
20210803160604 87 110 6.0 9.0 0.00 0.00 0.00 10 1013.0
20210803160304 87 113 2.0 9.0 0.00 0.00 0.00 10 1013.1
20210803160004 86 126 2.0 11.0 0.00 0.00 0.00 10 1012.9
20210803155704 85 125 4.0 12.0 0.00 0.00 0.00 10 1013.0
20210803155404 85 117 4.0 12.0 0.00 0.00 0.00 10 1013.0
20210803155104 85 115 5.0 12.0 0.00 0.00 0.00 10 1013.0
20210803154804 85 104 6.0 12.0 0.00 0.00 0.00 10 1013.1
20210803154504 85 107 5.0 14.0 0.00 0.00 0.00 10 1013.0
20210803154204 85 118 4.0 14.0 0.00 0.00 0.00 10 1013.1